Location: Blangy-Tronville
(49.8790°N, 2.4226°E)
Time: 00:38:18
(UTC+00:00)

Cosmos 1943 Rocket - Pass Details

Date: 18 November 2025
Orbit: 812 x 841 km, 71.0° (Epoch: 05 December)

Event Time Altitude Azimuth Distance (km) Brightness Sun altitude
Rises 19:06:34 0° 246° (WSW) 3,375 6.2 -29.3°
Reaches altitude 10° 19:09:23 10° 259° (W) 2,440 5.4 -29.7°
Maximum altitude 19:14:05 27° 316° (NW) 1,550 3.9 -30.5°
Enters shadow 19:16:45 19° 357° (N) 1,879 4.0 -30.9°
